Other Surface Observations
Issued by NWS

Home | Current Version | Previous Version | Text Only | Print | Product List | Glossary On
Versions: 1 2 3 4 5 6 7 8 9 10 11 12 13 14 15 16 17 18 19 20 21 22 23 24 25 26 27 28 29 30 31 32 33 34 35 36 37 38 39 40 41 42 43 44 45 46 47 48 49 50
000
SXUS52 KTAE 260918
OSOTAE
OSOTAE
North Florida/South Alabama/Southwest Georgia Weather Roundup
National Weather Service Tallahassee Florida
500 AM EDT SUN APR 26 2015

Note: "fair" indicates few or no clouds below 12,000 feet with no
significant weather and/or obstructions to visibility.

!FLZ017-115-028-034-025-261000
...North Florida...

CITY           SKY/WX    TMP DP  RH WIND       PRES   REMARKS
TALLAHASSEE    CLEAR     69  67  93 CALM      29.73F
APALACHICOLA   MOCLDY    75  70  84 NW5       29.74R
PERRY          CLEAR     69  69  98 SW3       29.75S
CROSS CITY       N/A     78  74  87 W12       29.74S
JACKSONVILLE   PTCLDY    71  69  93 SW13      29.70S
$$

!FLZ112-006-005-002-011-261000
...Florida Panhandle...

CITY           SKY/WX    TMP DP  RH WIND       PRES   REMARKS
MARIANNA       CLEAR     67  67 100 CALM      29.73S
BONIFAY        FOG       66  65  96 CALM      29.74S VSB 1/4
PANAMA CITY NW FAIR      66  64  93 CALM      29.73S FOG
TYNDALL AFB    CLEAR     72  70  92 W6        29.74R
TYND DRONE APT FAIR      73  71  96 W2        29.74R
DE FUNIAK SPR  FAIR      67  66  99 CALM      29.75S
EGLIN AFB      PTCLDY    68  67  95 NW1       29.73S
DESTIN         CLEAR     73  69  87 CALM      29.73S
HURLBURT       CLEAR     71  66  85 N2        29.72F
CRESTVIEW      FOG       60  59  96 CALM      29.75S VSB 1/2
PENSACOLA      CLEAR     67  66  97 NW3       29.73S
$$

!ALZ063-066-261000
...South Alabama...

CITY           SKY/WX    TMP DP  RH WIND       PRES   REMARKS
DOTHAN         CLEAR     66  64  93 SW9       29.76S
OZARK CAIRNS   CLEAR     64  60  88 S5        29.73S
FT RUCKER HELI CLEAR     63  61  93 CALM      29.72R FOG
RUCKER HELI 3  NOT AVBL
RUCKER HELI 2  FAIR      64  64 100 SW3       29.72S
FLORALA APT    CLEAR     64  62  93 CALM      29.75S
ANDALUSIA      CLEAR     67  62  84 CALM      29.73S
TROY           CLEAR     63  61  93 S3        29.72S
EUFALA         FAIR      64  62  93 SW5       29.69F
MOBILE         CLEAR     64  63  96 W3        29.75R
$$

!GAZ120>161-261000
...Southwest and South Central Georgia...

CITY           SKY/WX    TMP DP  RH WIND       PRES   REMARKS
THOMASVILLE    FAIR      68  68 100 W6        29.73S
BAINBRIDGE     CLEAR     72  70  94 SW7       29.73S
MOODY AFB      CLEAR     70  67  91 SW8       29.70S
VALDOSTA       CLEAR     69  68  96 VRB3      29.72S
MOULTRIE       CLEAR     68 N/A N/A W7        29.72F
BLAKELY        CLEAR     68  68 100 SW7       29.72F
ALBANY         CLEAR     66  64  93 W7        29.72S
TIFTON         FAIR      67  65  93 W5        29.70F
FITZGERALD     FAIR      68  65  91 W7        29.72S
CORDELE        FAIR      67  65  91 W10       29.71R
AMERICUS       FAIR      63  63 100 W7        29.72R
HOMERVILLE     FAIR      72  70  94 W8        29.71F
$$

!GMZ750-755-770-775-261000
...Coastal and Buoy Obs...

STATION/POSITION TIME  TEMP    WIND        PRES    VSBY  WAVE
                       AIR SEA DIR/SP/G                  HT/PER
                 (UTC) (F)     (DEG/KT/KT) (MB)    (MI)  (FT/S)
KEATON BEACH     0900   77     260/ 13/ 14 1007.0F
CEDAR KEY        0900   78     250/ 13/ 17 1007.6R
C TOWER          0900   76     240/ 17/ 18 1006.7R
APALACHICOLA BUO 0850   78 77  220/ 17/ 19 1006.5F         4/ 5
PANAMA CITY BUOY 0850   77 76  230/ 16/ 19 1006.6R         5/ 5
MOBILE BUOY      0850   78 77  240/ 12/ 14 1006.4F         5/ 8
ORANGE BCH AL BU 0850   74 74  300/  6/  6 1006.1S         3/ 5
$$



USA.gov is the U.S. government's official web portal to all federal, state and local government web resources and services.